Weather Roundup
Issued by NWS

Home | Current Version | Previous Version | Graphics & Text | Print | Product List | Glossary Off
Versions: 1 2 3 4 5 6 7 8 9 10 11 12 13 14 15 16 17 18 19 20 21 22 23 24 25 26 27 28 29 30 31 32 33 34 35 36 37 38 39 40 41 42 43 44 45 46 47 48 49 50

000
NZUS93 KARX 201110
HRRWXR

CURRENT HOURLY OBSERVATIONS ACROSS
MUCH OF THE UPPER MISSISSIPPI VALLEY
NATIONAL WEATHER SERVICE LA CROSSE WI
500 AM CST SAT DEC 20 2014


...SOUTHEAST MINNESOTA...


CITY           SKY/WX    TMP DP  RH WIND       PRES   REMARKS
ROCHESTER      CLOUDY    27  25  92 S10       30.16F FOG     WCI  17
ROCHESTER/MAYO CLOUDY    28  26  89 S6        30.17S WCI  22
WINONA         CLOUDY    30  25  80 CALM      30.22S
AUSTIN         CLOUDY    27  27 100 S6        30.15S FOG     WCI  20
ALBERT LEA     FOG       28  28 100 S6        30.14S VSB 1/2 WCI  22
DODGE CENTER   CLOUDY    28  27  93 S8        30.15S FOG     WCI  20
PRESTON        CLOUDY    26  25  94 S5        30.17F FOG     WCI  21
OWATONNA       MOCLDY    28  27  93 S7        30.15F FOG     WCI  21
FARIBAULT      CLOUDY    30  27  86 S6        30.15F FOG     WCI  24
$$

...ELSEWHERE IN MINNESOTA...


CITY           SKY/WX    TMP DP  RH WIND       PRES   REMARKS
MINNEAPOLIS    CLOUDY    29  25  85 SE8       30.15F FOG     WCI  21
INTNL FALLS    LGT SNOW  26  23  88 SE6       30.05S FOG     WCI  19
DULUTH         CLOUDY    26  23  88 SE7       30.11S FOG     WCI  18
RED WING       CLOUDY    30  25  80 SE6       30.18S WCI  24
REDWOOD FALLS  CLOUDY    31  28  89 S10       30.09F WCI  22
MANKATO        CLOUDY    30  27  86 S10       30.13F VSB 3/4 WCI  21
WORTHINGTON    CLOUDY    28  28 100 S10       30.08R WCI  19
FAIRMONT       CLOUDY    28  25  86 S12       30.10F WCI  18
$$

...SOUTHWEST WISCONSIN...


CITY           SKY/WX    TMP DP  RH WIND       PRES   REMARKS
LA CROSSE      CLOUDY    30  23  75 S8        30.22F WCI  22
PRAIRIE DU CHI CLOUDY    28  24  85 E6        30.24S WCI  22
BOSCOBEL       CLOUDY    29  24  82 CALM      30.25F
LONE ROCK      CLOUDY    30  23  75 E5        30.26S WCI  25
PLATTEVILLE    CLOUDY    28  26  93 CALM      30.24S
FORT MC COY    CLOUDY    28  23  81 S3        30.23F
CAMP DOUGLAS   MIX PCPN  26  26 100 E5        30.23S WCI  20
VIROQUA        CLOUDY    26  25  94 S6        30.20S WCI  20
WIS DELLS      LGT SNOW  25  23  89 S5        30.24S WCI  20
$$

...ELSEWHERE IN WISCONSIN...


CITY           SKY/WX    TMP DP  RH WIND       PRES   REMARKS
MILWAUKEE      CLOUDY    27  19  72 W6        30.27S WCI  20
MADISON        CLOUDY    27  22  81 CALM      30.25S
GREEN BAY      MOCLDY    21  19  92 CALM      30.28R
EAU CLAIRE     CLOUDY    28  21  75 S7        30.20S WCI  21
BLACK RVR FLS  CLOUDY    28  23  80 CALM      30.22S
MEDFORD        CLOUDY    23  22  95 SE5       30.18F WCI  17
WAUSAU         CLOUDY    24  21  88 S6        30.21S WCI  17
WIS RAPIDS     CLOUDY    24  21  88 CALM      30.25S FOG
MARSHFIELD     CLOUDY    25  22  88 S7        30.21S FOG     WCI  17
RICE LAKE      CLOUDY    27  23  85 SE7       30.18F WCI  20
$$

...NORTHEAST IOWA...


CITY           SKY/WX    TMP DP  RH WIND       PRES   REMARKS
DECORAH        CLOUDY    27  25  93 SE5       30.18F FOG     WCI  21
MASON CITY     FOG       29  28  96 S7        30.17S VSB 3/4 WCI  22
CHARLES CITY   CLOUDY    28  28 100 SE8       30.18S FOG     WCI  20
OELWEIN        CLOUDY    28  27  93 SE9       30.20S WCI  20
$$

...ELSEWHERE IN IOWA...


CITY           SKY/WX    TMP DP  RH WIND       PRES   REMARKS
DES MOINES     FRZ DRZL  32  30  92 S5        30.17F FOG     WCI  27
IOWA CITY      CLOUDY    30  25  81 SE6       30.24S WCI  24
FORT DODGE     CLOUDY    28  25  86 S6        30.15S WCI  22
$$

...NORTHERN ILLINOIS...


CITY           SKY/WX    TMP DP  RH WIND       PRES   REMARKS
CHICAGO-OHARE  CLOUDY    29  23  78 CALM      30.26F
CHICAGO-MIDWAY CLOUDY    32  25  75 SW3       30.28S
MOLINE         NOT AVBL
ROCKFORD       CLOUDY    26  22  84 E3        30.29S
PEORIA         CLOUDY    29  24  82 CALM      30.26F
$$

NOTE: "FAIR" INDICATES FEW OR NO CLOUDS BELOW 12,000 FEET WITH NO
SIGNIFICANT WEATHER AND/OR OBSTRUCTIONS TO VISIBILITY. WIND
SPEEDS ARE IN MILES-PER-HOUR.



USA.gov is the U.S. government's official web portal to all federal, state and local government web resources and services.